x

8419317 - Wells, Me (welm1) Weather Station

6:54 - Tue 23rd Sep 2014 All times are EDT. -4 hours from GMT.

  • Wind
    2mph
  • Sea Temp 53°f
  • Air Temp 45°f
  • Sea Pressure 1021.6mb
  • 8419317 - Wells, Me
  • 8419317 - Wells, Me

More Historic Weather Station data

Upgrade to MSW Pro to gain access to the past 30 days of data for over 8000 Wavebouys and Weather Stations around the globe.

Join Pro

Comparision Forecast

View Surf forecast
   
mar. 09/23 6:54 2
mph
1021.6mb 53f 45f
6:48 1 2 mph 1021.5mb 52f 44f
6:42 2 6 mph 1021.4mb 52f 45f
6:36 5 6 mph 1021.4mb 52f 44f
6:30 6 7 mph 1021.3mb 52f 44f
6:24 7 8 mph 1021.3mb 52f 44f
6:18 6 7 mph 1021.2mb 52f 43f
6:12 5 6 mph 1021mb 52f 42f
6:06 6 7 mph 1020.9mb 52f 42f
6:00 5
mph
1020.8mb 52f 42f
5:54 2 3 mph 1020.7mb 52f 42f
5:48 2 5 mph 1020.7mb 52f 42f
5:42  -  2 mph 1020.5mb 52f 42f
5:36 2
mph
1020.5mb 52f 42f
5:30 1 2 mph 1020.3mb 52f 42f
5:24 3 5 mph 1020.3mb 52f 42f
5:18 2 3 mph 1020.1mb 52f 42f
5:12 2 3 mph 1020.1mb 52f 42f
5:06 1 2 mph 1020.1mb 52f 42f
5:00 2 6 mph 1020.1mb 52f 43f
4:54 5 6 mph 1020.1mb 52f 43f
4:48 2 3 mph 1020mb 52f 43f
4:42 2 3 mph 1019.9mb 52f 42f
4:36 2 5 mph 1019.9mb 52f 42f
4:30 5
mph
1019.9mb 52f 43f
4:24 5 6 mph 1019.8mb 52f 43f
4:18 6
mph
1019.7mb 52f 43f
4:12 5
mph
1019.7mb 52f 43f
4:06 1 3 mph 1019.6mb 52f 43f
4:00  -  3 mph 1019.4mb 52f 44f
3:54 2 3 mph 1019.4mb 52f 45f
3:48 3 6 mph 1019.2mb 52f 46f
3:42 6 7 mph 1019.1mb 52f 45f
3:36 6
mph
1019mb 52f 46f
3:30 5 6 mph 1018.9mb 52f 46f
3:24 6 7 mph 1018.7mb 52f 47f
3:18 3 6 mph 1018.6mb 52f 46f
3:12 2 5 mph 1018.6mb 52f 45f
3:06 1 2 mph 1018.6mb 52f 45f
3:00 1 5 mph 1018.5mb 52f 46f
2:54 3 6 mph 1018.5mb 52f 46f
2:48 5 7 mph 1018.4mb 52f 46f
2:42 6 7 mph 1018.4mb 51f 46f
2:36 5 8 mph 1018.4mb 51f 46f
2:30 5 7 mph 1018.3mb 51f 46f
2:24 6 7 mph 1018.4mb 51f 46f
2:18 5 6 mph 1018.3mb 51f 46f
2:12 5 6 mph 1018.2mb 51f 46f
2:06 3 5 mph 1018.2mb 51f 46f
2:00 3
mph
1018.2mb 51f 46f
1:54 2 3 mph 1018.2mb 51f 47f
1:48 3 5 mph 1018.2mb 51f 47f
1:42 3 5 mph 1018.3mb 51f 48f
1:36 5 6 mph 1018.2mb 51f 48f
1:30 3 5 mph 1018.2mb 51f 48f
1:24 3 5 mph 1018.2mb 51f 49f
1:18 3 6 mph 1018.2mb 51f 49f
1:12 5 6 mph 1018.1mb 51f 50f
1:06 3 5 mph 1018.1mb 51f 50f
1:00 2 3 mph 1017.9mb 51f 50f
12:54 1 3 mph 1017.8mb 51f 50f
12:48 1 2 mph 1017.7mb 51f 50f
12:42  -  3 mph 1017.6mb 51f 49f
12:36 3 5 mph 1017.5mb 51f 50f
12:30 5 6 mph 1017.4mb 51f 49f
12:24 5 7 mph 1017.2mb 52f 50f
12:18 6 8 mph 1017.2mb 52f 50f
12:12 6 7 mph 1017.1mb 52f 50f
12:06 6 9 mph 1017mb 52f 50f
12:00 7 10 mph 1016.9mb 52f 51f
lun. 09/22 11:54 7 11 mph 1016.9mb 52f 51f
11:48 10 13 mph 1016.9mb 52f 51f
11:42 10 14 mph 1016.8mb 52f 52f
11:36 10 17 mph 1016.7mb 52f 52f
11:30 13 17 mph 1016.6mb 51f 52f
11:24 10 22 mph 1016.5mb 51f 52f
11:18 10 14 mph 1016.4mb 52f 52f
11:12 11 16 mph 1016.3mb 52f 52f
11:06 10 15 mph 1016.3mb 52f 52f
11:00 11 18 mph 1016.2mb 52f 52f
10:54 8 14 mph 1016.1mb 52f 52f
10:48 9 16 mph 1016mb 52f 53f
10:42 10 16 mph 1016.1mb 52f 53f
10:36 8 20 mph 1016mb 52f 53f
10:30 11 16 mph 1015.9mb 52f 53f
10:24 14 22 mph 1015.8mb 52f 53f
10:18 13 20 mph 1015.7mb 52f 53f
10:12 13 18 mph 1015.6mb 52f 53f
10:06 14 22 mph 1015.6mb 52f 54f
10:00 11 24 mph 1015.6mb 52f 54f
9:54 16 23 mph 1015.4mb 52f 54f
9:48 15 26 mph 1015.4mb 52f 55f
9:42 14 25 mph 1015.2mb 52f 55f
9:36 14 17 mph 1015.2mb 52f 55f
9:30 14 20 mph 1014.9mb - 55f
9:24 10 15 mph 1014.8mb - 55f
9:18 13 20 mph 1014.6mb 52f 56f
9:12 13 20 mph 1014.4mb 51f 56f
9:06 10 18 mph 1014.3mb 51f 56f
9:00 15 23 mph 1014.2mb 51f 56f
8:54 11 21 mph 1014mb 51f 56f
8:48 11 20 mph 1013.9mb 51f 56f
8:42 11 16 mph 1013.8mb 51f 56f
8:36 7 11 mph 1013.7mb 51f 56f
8:30 9 13 mph 1013.5mb 51f 57f
8:24 10 15 mph 1013.4mb 51f 57f
8:18 7 13 mph 1013.2mb 51f 57f
8:12 7 10 mph 1013mb 51f 57f
8:06 8 14 mph 1012.7mb 51f 58f
8:00 8 16 mph 1012.5mb 51f 58f
7:54 6 9 mph 1012.4mb 51f 57f
7:48 5 8 mph 1012.1mb 52f 57f
7:42 5 7 mph 1012mb 53f 57f
7:36 6 7 mph 1011.7mb 53f 58f
7:30 5 7 mph 1011.5mb 54f 59f
7:24 5 7 mph 1011.5mb 55f 59f
7:18 5 9 mph 1011.3mb 57f 59f
7:12 5 8 mph 1011.2mb 58f 60f
7:06 7 10 mph 1011mb 59f 60f
7:00 6 10 mph 1010.8mb 60f 60f
6:54 8 11 mph 1010.6mb 61f 61f
6:48 8 17 mph 1010.4mb 61f 61f
6:42 8 11 mph 1010.3mb 61f 61f
6:36 8 14 mph 1010.2mb 61f 62f
6:30 10 15 mph 1010mb 61f 62f
6:24 8 15 mph 1009.9mb 61f 63f
6:18 5 8 mph 1009.8mb 61f 63f
6:12 3 6 mph 1009.7mb 61f 63f
6:06 3 6 mph 1009.6mb 61f 64f
6:00 5 10 mph 1009.5mb 60f 64f
5:54 7 10 mph 1009.2mb 60f 64f
5:48 7 14 mph 1009mb 60f 64f
5:42 9 18 mph 1008.9mb 60f 64f
5:36 7 16 mph 1008.7mb 60f 64f
5:30 13 21 mph 1008.6mb 60f 65f
5:24 10 17 mph 1008.4mb 60f 65f
5:18 13 25 mph 1008.3mb 60f 65f
5:12 14 25 mph 1008.2mb 59f 65f
5:06 13 21 mph 1008.1mb 59f 65f
5:00 17 24 mph 1007.9mb 59f 65f
4:54 13 21 mph 1007.9mb 59f 66f
4:48 16 23 mph 1007.8mb 59f 66f
4:42 13 20 mph 1007.6mb 59f 66f
4:36 9 16 mph 1007.6mb 59f 66f
4:30 8 14 mph 1007.4mb 59f 66f
4:24 10 23 mph 1007.3mb 59f 65f
4:18 11 20 mph 1007.2mb 59f 65f
4:12 16 24 mph 1007mb 59f 65f
4:06 11 20 mph 1007mb 59f 66f
4:00 14 21 mph 1006.9mb 59f 65f
3:54 17 24 mph 1006.8mb 59f 65f
3:48 13 20 mph 1006.8mb 59f 66f
3:42 11 20 mph 1006.8mb 59f 66f
3:36 14 23 mph 1006.8mb 59f 65f
3:30 15 25 mph 1006.7mb 59f 65f
3:24 15 20 mph 1006.7mb 59f 65f
3:18 10 20 mph 1006.7mb 60f 65f
3:12 10 21 mph 1006.6mb 60f 65f
3:06 17 24 mph 1006.4mb 60f 65f
3:00 15 20 mph 1006.3mb 60f 65f
2:54 15 22 mph 1006.3mb 60f 65f
2:48 15 22 mph 1006.2mb 60f 65f
2:42 15 25 mph 1006.2mb 60f 65f
2:36 11 21 mph 1006.2mb 60f 65f
2:30 11 21 mph 1006.1mb 60f 66f
2:24 14 22 mph 1006.1mb 60f 65f
2:18 13 20 mph 1006.1mb - 66f
2:12 13 26 mph 1006mb - 65f
2:06 14 25 mph 1005.9mb - 66f
2:00 14 25 mph 1005.7mb 59f 66f
1:54 21 29 mph 1005.6mb 59f 66f
1:48 23 30 mph 1005.3mb 59f 66f
1:42 17 28 mph 1005.2mb 59f 66f
1:36 14 26 mph 1005.2mb 58f 67f
1:30 20 28 mph 1005.1mb 58f 66f
1:24 18 29 mph 1005.1mb 58f 66f
1:18 21 32 mph 1005.1mb 58f 66f
1:12 14 23 mph 1004.9mb 58f 67f
1:06 17 32 mph 1004.7mb 57f 67f
1:00 15 25 mph 1004.5mb 57f 67f
12:54 14 21 mph 1004.5mb 57f 68f
12:48 20 28 mph 1004.5mb 57f 68f
12:42 16 26 mph 1004.4mb 57f 69f
12:36 16 24 mph 1004.4mb 56f 68f
12:30 18 31 mph 1004.3mb 56f 68f
12:24 14 24 mph 1004.2mb 56f 69f
12:18 14 21 mph 1004.1mb 56f 69f
12:12 15 25 mph 1003.9mb 56f 70f
12:06 14 22 mph 1003.7mb 56f 70f
12:00 13 18 mph 1003.6mb 55f 70f
11:54 14 23 mph 1003.6mb 55f 69f
11:48 14 21 mph 1003.5mb 55f 69f
11:42 14 24 mph 1003.4mb 55f 70f
11:36 15 29 mph 1003.3mb 55f 71f
11:30 13 23 mph 1003.1mb 55f 71f
11:24 15 24 mph 1003.2mb 55f 70f
11:18 17 28 mph 1003.1mb 55f 70f
11:12 11 21 mph 1002.9mb 55f 70f
11:06 13 16 mph 1002.9mb 55f 70f
11:00 13 21 mph 1002.9mb 55f 70f
10:54 8 18 mph 1002.9mb 55f 70f
10:48 14 21 mph 1002.9mb 55f 69f
10:42 15 22 mph 1002.8mb 55f 69f
10:36 10 26 mph 1002.8mb 55f 69f
10:30 10 20 mph 1002.7mb 55f 69f
10:24 10 17 mph 1002.6mb 55f 68f
10:18 13 22 mph 1002.6mb 55f 68f
10:12 11 16 mph 1002.7mb 55f 68f
10:06 10 22 mph 1002.6mb 55f 68f
10:00 15 20 mph 1002.5mb 55f 68f
9:54 9 18 mph 1002.5mb 55f 68f
9:48 9 16 mph 1002.4mb 55f 68f
9:42 9 14 mph 1002.3mb 55f 67f
9:36 9 14 mph 1002.4mb 56f 67f
9:30 8 14 mph 1002.3mb 56f 67f
9:24 7 15 mph 1002.2mb 56f 67f
9:18 10 20 mph 1002mb 56f 66f
9:12 7 11 mph 1001.9mb 56f 66f
9:06 7 14 mph 1001.8mb 56f 66f
9:00 9 15 mph 1001.8mb 56f 65f
8:54 10 16 mph 1001.8mb 56f 65f
8:48 11 17 mph 1001.7mb 57f 65f
8:42 8 14 mph 1001.7mb 57f 65f
8:36 9 15 mph 1001.7mb 57f 65f
8:30 10 18 mph 1001.7mb 57f 64f
8:24 8 14 mph 1001.6mb 57f 64f
8:18 9 15 mph 1001.6mb 57f 64f
8:12 9 14 mph 1001.5mb 57f 64f
8:06 8 13 mph 1001.4mb 57f 64f
8:00 8 11 mph 1001.3mb 57f 64f
7:54 7 11 mph 1001.2mb 57f 64f
7:48 7 11 mph 1001.2mb 58f 64f
7:42 8 13 mph 1001.1mb 58f 64f
7:36 7 10 mph 1001.1mb 58f 64f
7:30 6 11 mph 1001.1mb 58f 64f
7:24 8 13 mph 1001mb 58f 63f
7:18 7 10 mph 1001mb 58f 63f
7:12 7 10 mph 1001mb 59f 63f
7:06 6 10 mph 1000.8mb 59f 63f
7:00 6 10 mph 1000.7mb 59f 63f
6:54 6 11 mph 1000.7mb 59f 63f
6:48 7 10 mph 1000.6mb 59f 63f
6:42 7 11 mph 1000.4mb 59f 62f
6:36 7 11 mph 1000.3mb 59f 62f
6:30 5 8 mph 1000.2mb 59f 62f
6:24 6 8 mph 1000.1mb 59f 62f
6:18 6 9 mph 1000mb 59f 63f
6:12 5 9 mph 999.8mb 59f 63f
6:06 6 11 mph 999.6mb 59f 63f
6:00 7 13 mph 999.3mb 59f 63f
5:54 8 13 mph 999.2mb 59f 63f
5:48 10 14 mph 999mb 58f 64f
5:42 9 15 mph 998.8mb 58f 64f
5:36 9 14 mph 998.7mb 58f 64f
5:30 7 10 mph 998.5mb 58f 65f
5:24 6 10 mph 998.3mb 58f 65f
5:18 6 10 mph 998.4mb 58f 65f
5:12 6 10 mph 998.5mb 58f 65f
5:06 6 10 mph 998.5mb 58f 66f
5:00 6 11 mph 998.3mb 58f 66f
4:54 7 11 mph 998.4mb 58f 66f
4:48 7 13 mph 998.1mb 58f 66f
4:42 6 10 mph 998mb 58f 66f
4:36 6 9 mph 998mb 58f 66f
4:30 3 6 mph 997.9mb 58f 64f
4:24  -  2 mph 998mb 58f 62f
4:18 1 3 mph 998mb 58f 62f
4:12 3
mph
997.9mb 58f 62f
4:06 2 3 mph 998.1mb 58f 62f
4:00 3 5 mph 998.1mb 58f 62f
3:54 5 6 mph 998mb 58f 62f
3:48 6
mph
997.9mb 58f 62f
3:42 3 5 mph 997.8mb 58f 63f
3:36 3 5 mph 997.9mb 58f 63f
3:30 5 6 mph 997.9mb 58f 63f
3:24 6
mph
998mb 58f 63f
3:18 5
mph
998mb 58f 63f
3:12 2 3 mph 997.9mb 58f 62f
3:06 3 5 mph 997.9mb 58f 62f
3:00 5
mph
997.9mb 58f 63f
2:54 5
mph
997.9mb 58f 63f
2:48 5
mph
997.8mb 58f 64f
2:42 3
mph
998mb 58f 64f
2:36 2 3 mph 998.2mb 58f 64f
2:30 2
mph
998.1mb 58f 63f
2:24 2
mph
998.2mb 58f 64f
2:18 2
mph
998.3mb 58f 64f
2:12 2 3 mph 998.4mb 58f 64f
2:06 2 3 mph 998.4mb 58f 64f
2:00 3
mph
998.4mb 58f 63f
1:54 3 5 mph 998.4mb 58f 63f
1:48 3
mph
998.6mb 58f 63f
1:42 3
mph
998.6mb 58f 63f
1:36 3
mph
998.7mb 58f 63f
1:30 2
mph
998.8mb 58f 63f
1:24 1
mph
998.7mb 57f 62f
1:18 2
mph
998.7mb 57f 62f
1:12 1 2 mph 998.8mb 57f 62f
1:06 2
mph
999mb 57f 62f
1:00  -  mph 998.9mb 57f 64f
12:54  -  1 mph 998.9mb 57f 64f
12:48 1 2 mph 999mb 57f 64f
12:42 1
mph
999.1mb 57f 64f
12:36 1 2 mph 999.1mb 57f 64f
12:30 2
mph
999.3mb 57f 64f
12:24  -  mph 999.2mb 57f 64f
12:18  -  2 mph 999.3mb 57f 64f
12:12 2
mph
999.3mb 57f 64f
12:06 1
mph
999.4mb 57f 64f
12:00  -  1 mph 999.5mb 57f 64f
dim. 09/21 11:54  -  1 mph 999.7mb 57f 64f
11:48  -  1 mph 999.7mb 57f 64f
11:42 1
mph
999.6mb 57f 64f
11:36 1
mph
999.7mb 57f 64f
11:30 1 2 mph 999.8mb 57f 64f
11:24 1 2 mph 1000mb 57f 64f
11:18 1 2 mph 1000mb 57f 64f
11:12 1 2 mph 1000.1mb 57f 64f
11:06 2
mph
1000.3mb 57f 64f
11:00 2 3 mph 1000.3mb 57f 64f
10:54 2 3 mph 1000.4mb 57f 64f
10:48 2 3 mph 1000.5mb 57f 64f
10:42 3 5 mph 1000.6mb 57f 64f
10:36 5
mph
1000.7mb 57f 64f
10:30 3
mph
1000.9mb 57f 64f
10:24 3
mph
1001mb 57f 64f
10:18 3
mph
1001.1mb 57f 64f
10:12 3
mph
1001.2mb 56f 64f
10:06 3
mph
1001.3mb 56f 64f
10:00 2 3 mph 1001.3mb 57f 64f
9:54 2
mph
1001.4mb 57f 64f
9:48 2
mph
1001.6mb 57f 64f
9:42  -  1 mph 1001.7mb 57f 64f
9:36  -  1 mph 1001.8mb 57f 64f
9:30 1 2 mph 1001.7mb 57f 64f
9:24 1
mph
1001.8mb 57f 64f
9:18  -  1 mph 1001.9mb 57f 64f
9:12  -  mph 1002mb 57f 64f
9:06  -  2 mph 1002mb 57f 64f
9:00 1 2 mph 1001.9mb 57f 64f
8:54 1 2 mph 1002.1mb 57f 64f
8:48 2 3 mph 1002.2mb 57f 64f
8:42 2
mph
1002.5mb 57f 64f
8:36 1
mph
1002.7mb 57f 64f
8:30  -  1 mph 1002.7mb 57f 64f
8:24  -  1 mph 1002.9mb 57f 64f
8:18  -  2 mph 1002.9mb 57f 64f
8:12 1 2 mph 1002.8mb 57f 64f
8:06 2 3 mph 1002.8mb 57f 64f
8:00 3 5 mph 1002.8mb 57f 63f
7:54 3
mph
1002.8mb 57f 64f
7:48 2 3 mph 1003mb 57f 64f
7:42 1 3 mph 1003.1mb 57f 64f
7:36 2 3 mph 1003.2mb 57f 64f
7:30 2 3 mph 1003.3mb 57f 63f
7:24 3 5 mph 1003.3mb 58f 64f
7:18 3 5 mph 1003.3mb 58f 64f
7:12 5
mph
1003.3mb 58f 64f
7:06 3 5 mph 1003.4mb 58f 64f
7:00 2 3 mph 1003.5mb 58f 64f
6:54 2 3 mph 1003.5mb 58f 64f
6:48 1 2 mph 1003.8mb 59f 64f
6:42 1 2 mph 1003.7mb 59f 64f
6:36 1 3 mph 1003.9mb 59f 64f
6:30 2 3 mph 1004mb 60f 64f
6:24 3 5 mph 1004.1mb 60f 64f
6:18 5 6 mph 1004.1mb 60f 64f
6:12 5 6 mph 1004.1mb 60f 64f
6:06 5 7 mph 1004.3mb 60f 64f
6:00 6 8 mph 1004.3mb 60f 64f
5:54 3 5 mph 1004.5mb 60f 64f
5:48 3
mph
1004.6mb 60f 64f
5:42 2
mph
1004.7mb 60f 64f
5:36 2 5 mph 1004.8mb 60f 63f
5:30 3 5 mph 1005mb 60f 63f
5:24 2 3 mph 1005.1mb 60f 64f
5:18 2 3 mph 1005.2mb 60f 64f
5:12 3 6 mph 1005.3mb 60f 63f
5:06 2 6 mph 1005.4mb 60f 64f
5:00 5 8 mph 1005.3mb 60f 63f
4:54 7 8 mph 1005.5mb 60f 64f
4:48 7 9 mph 1005.6mb 60f 64f
4:42 3 6 mph 1005.7mb 60f 64f
4:36 5 7 mph 1005.8mb 60f 63f
4:30 5 7 mph 1005.9mb 60f 63f
4:24 3 6 mph 1005.9mb 60f 64f
4:18 5 7 mph 1006mb 60f 64f
4:12 6 8 mph 1006mb 60f 64f
4:06 6 7 mph 1006.1mb 60f 64f
4:00 6 8 mph 1006.1mb 60f 64f
3:54 7 8 mph 1006.3mb 60f 64f
3:48 7 9 mph 1006.4mb 60f 64f
3:42 5 7 mph 1006.4mb 60f 64f
3:36 6 7 mph 1006.5mb 59f 65f
3:30 6 8 mph 1006.6mb 59f 65f
3:24 7 9 mph 1006.7mb 59f 65f
3:18 8 10 mph 1006.9mb 59f 65f
3:12 9 11 mph 1006.9mb 59f 65f
3:06 10 14 mph 1006.9mb 59f 66f
3:00 10 16 mph 1006.9mb 59f 67f
2:54 13 16 mph 1007mb 59f 67f
2:48 11 14 mph 1007.2mb 59f 66f
2:42 11 15 mph 1007.3mb 59f 66f
2:36 14 17 mph 1007.6mb 59f 66f
2:30 14 18 mph 1007.9mb 59f 66f
2:24 15 20 mph 1008mb 59f 67f
2:18 16 20 mph 1008mb 59f 67f
2:12 15 20 mph 1008mb 59f 67f
2:06 15 18 mph 1008mb 59f 67f
2:00 14 16 mph 1008.2mb 59f 67f
1:54 15 18 mph 1008.3mb 59f 67f
1:48 15 20 mph 1008.4mb 59f 67f
1:42 17 20 mph 1008.6mb 59f 67f
1:36 15 17 mph 1008.6mb 58f 67f
1:30 14 17 mph 1008.7mb 58f 66f
1:24 13 15 mph 1008.8mb 58f 65f
1:18 14 17 mph 1009mb 58f 65f
1:12 15 17 mph 1009.3mb 58f 66f
1:06 14 16 mph 1009.3mb 58f 65f
1:00 14 20 mph 1009.6mb 58f 66f
12:54 15 21 mph 1009.8mb 58f 66f
12:48 17 22 mph 1010mb 58f 66f
12:42 18 22 mph 1010.2mb 58f 66f
12:36 18 22 mph 1010.3mb 58f 66f
12:30 15 17 mph 1010.4mb 58f 65f
12:24 13 16 mph 1010.6mb 57f 65f
12:18 14 18 mph 1010.6mb 57f 65f
12:12 15 17 mph 1010.8mb 57f 65f
12:06 14 16 mph 1010.9mb 57f 65f
12:00 13 15 mph 1011.1mb 57f 65f
11:54 11 14 mph 1011.1mb 57f 64f
11:48 11 14 mph 1011.3mb 57f 64f
11:42 9 14 mph 1011.4mb 57f 64f
11:36 9 11 mph 1011.5mb 57f 64f
11:30 9 13 mph 1011.5mb 57f 64f
11:24 9 11 mph 1011.6mb 57f 64f
11:18 7 9 mph 1011.7mb 57f 63f
11:12 6 8 mph 1011.8mb 57f 63f
11:06 5 7 mph 1011.9mb 57f 62f
11:00 5 6 mph 1012mb 57f 63f
10:54 5 6 mph 1012.1mb 57f 63f
10:48 3 5 mph 1012.1mb 57f 63f
10:42 3 6 mph 1012.3mb 57f 63f
10:36 5 6 mph 1012.2mb 57f 63f
10:30 2 5 mph 1012.3mb 57f 63f
10:24 5 7 mph 1012.2mb 57f 63f
10:18 5 6 mph 1012.2mb 57f 63f
10:12 5 6 mph 1012.3mb 57f 63f
10:06 3 7 mph 1012.5mb 57f 62f
10:00 6 7 mph 1012.5mb 57f 62f
9:54 6 7 mph 1012.5mb 57f 63f
9:48  -  3 mph 1012.7mb 57f 63f
9:42 3 7 mph 1012.7mb 57f 63f
9:36 7 10 mph 1012.6mb 57f 63f
9:30 8 9 mph 1012.6mb 57f 63f
9:24 7 8 mph 1012.7mb 57f 63f
9:18 6 7 mph 1012.8mb 57f 63f
9:12 5
mph
1012.9mb 57f 63f
9:06 3 5 mph 1013.1mb 57f 63f
9:00 3 5 mph 1013.3mb 57f 62f
8:54 3 5 mph 1013.4mb 57f 62f
8:48 2 8 mph 1013.4mb 57f 62f
8:42 5 8 mph 1013.6mb 57f 62f
8:36 3 8 mph 1013.5mb 57f 61f
8:30 7 10 mph 1013.2mb 57f 61f
8:24 9 11 mph 1012.9mb 57f 60f
8:18 11 14 mph 1012.9mb 57f 61f
8:12 9 11 mph 1012.8mb 57f 60f
8:06 10 13 mph 1012.8mb 57f 60f
8:00 11 14 mph 1013mb 57f 60f
7:54 10 13 mph 1013.2mb 57f 60f
7:48 7 8 mph 1013.1mb 57f 59f
7:42 1 3 mph 1013.4mb 57f 59f
7:36 2
mph
1013.3mb 57f 59f
7:30 2
mph
1013.3mb 57f 59f
7:24  -  2 mph 1013.4mb 57f 58f
7:18 2 3 mph 1013.5mb 57f 58f
7:12 3 5 mph 1013.6mb 57f 58f
7:06 1 2 mph 1013.7mb 57f 58f
7:00 1 2 mph 1013.8mb 57f 58f
6:54  -  1 mph 1013.8mb 57f 58f
6:48  -  1 mph 1013.9mb 57f 58f
6:42 1
mph
1014.1mb 57f 58f
6:36 1
mph
1014.2mb 57f 58f
6:30  -  mph 1014.1mb 57f 58f
6:24  -  1 mph 1014mb 57f 58f
6:18  -  1 mph 1013.9mb 57f 58f
6:12  -  2 mph 1013.8mb 57f 58f
6:06 2
mph
1013.9mb 57f 58f
6:00 1 2 mph 1014mb 57f 58f
5:54 1 2 mph 1014mb 57f 58f
5:48 2 3 mph 1014mb 57f 58f
5:42 2 5 mph 1013.9mb 57f 58f
5:36 1 2 mph 1013.9mb 57f 58f
5:30 1 2 mph 1014.1mb 57f 58f
5:24 2
mph
1014.1mb 57f 58f
5:18  -  3 mph 1014.2mb 57f 58f
5:12 3 6 mph 1014.2mb 57f 58f
5:06 5 6 mph 1014.5mb 57f 57f
5:00 3
mph
1014.5mb 57f 57f
4:54 1 2 mph 1014.6mb 57f 56f
4:48  -  2 mph 1014.6mb 57f 56f
4:42  -  1 mph 1014.6mb 57f 56f
4:36  -  2 mph 1014.7mb 57f 56f
4:30 2 3 mph 1014.8mb 57f 55f
4:24 1 2 mph 1014.8mb 57f 55f
4:18 1 3 mph 1014.8mb 57f 55f
4:12 3 5 mph 1014.9mb 57f 55f
4:06 3
mph
1014.9mb 57f 55f
4:00 2
mph
1015mb 57f 54f
3:54 2 3 mph 1015mb 57f 54f
3:48 2 3 mph 1015mb 57f 56f
3:42 3
mph
1015.1mb 57f 56f
3:36 1 2 mph 1015.3mb 57f 55f
3:30  -  1 mph 1015.3mb 57f 55f
3:24  -  1 mph 1015.5mb 57f 56f
3:18  -  1 mph 1015.5mb 57f 55f
3:12  -  1 mph 1015.6mb 57f 56f
3:06  -  1 mph 1015.7mb 57f 56f
3:00  -  2 mph 1015.8mb 57f 56f
2:54 2 3 mph 1015.8mb 57f 56f
2:48 3
mph
1015.8mb 57f 56f
2:42 2 3 mph 1015.9mb 57f 55f
2:36 1 2 mph 1016mb 57f 56f
2:30 1 3 mph 1016.1mb 57f 56f
2:24 2 3 mph 1016.2mb 57f 56f
2:18 3 7 mph 1016.2mb 57f 58f
2:12 5 8 mph 1016.2mb 57f 58f
2:06 3 7 mph 1016.3mb 57f 58f
2:00 5 6 mph 1016.4mb 57f 57f
1:54 6 7 mph 1016.5mb 57f 58f
1:48 6 7 mph 1016.5mb 57f 57f
1:42 6 7 mph 1016.7mb 57f 57f
1:36 5 7 mph 1016.7mb 57f 58f
1:30 6 7 mph 1016.8mb 57f 58f
1:24 3 6 mph 1016.9mb 57f 58f
1:18 3 6 mph 1017mb 57f 58f
1:12 3 6 mph 1017.1mb 57f 58f
1:06 6 8 mph 1017.2mb 57f 58f
1:00 6 7 mph 1017.2mb 57f 58f
12:54 6 7 mph 1017.3mb 57f 59f
12:48 3 6 mph 1017.4mb 57f 58f
12:42 3 5 mph 1017.5mb 57f 59f
12:36 3 5 mph 1017.5mb 57f 59f
12:30 3 5 mph 1017.5mb 57f 59f
12:24 3 5 mph 1017.6mb 57f 59f
12:18 3 6 mph 1017.6mb 57f 60f
12:12 5 7 mph 1017.6mb 57f 60f
12:06 5 9 mph 1017.5mb 57f 60f
12:00 7 13 mph 1017.4mb 57f 60f
sam. 09/20 11:54 10 14 mph 1017.4mb 57f 61f
11:48 10 13 mph 1017.4mb 57f 60f
11:42 6 8 mph 1017.4mb 57f 60f
11:36 7 9 mph 1017.5mb 57f 60f
11:30 6 7 mph 1017.7mb 57f 61f
11:24 7 9 mph 1017.8mb 57f 61f
11:18 8 9 mph 1017.8mb 57f 61f
11:12 8 10 mph 1017.9mb 57f 61f
11:06 10 11 mph 1017.9mb 57f 61f
11:00 8 9 mph 1018.1mb 57f 61f
10:54 6 7 mph 1018.2mb 57f 61f
10:48 7 10 mph 1018.3mb 57f 61f
10:42 9 11 mph 1018.4mb 57f 62f
10:36 9 11 mph 1018.4mb 57f 62f
10:30 10 13 mph 1018.4mb 57f 62f
10:24 9 10 mph 1018.5mb 57f 62f
10:18 8 11 mph 1018.5mb 57f 62f
10:12 7 9 mph 1018.5mb 57f 62f
10:06 7 9 mph 1018.5mb 57f 63f
10:00 8 11 mph 1018.6mb 57f 63f
9:54 9 13 mph 1018.7mb 57f 63f
9:48 9 13 mph 1018.7mb 57f 63f
9:42 11 14 mph 1018.7mb 57f 63f
9:36 13 15 mph 1018.8mb 57f 64f
9:30 13 16 mph 1018.8mb 57f 64f
9:24 15 20 mph 1018.8mb 57f 64f
9:18 14 15 mph 1018.9mb 57f 64f
9:12 14 17 mph 1018.9mb 57f 64f
9:06 13 17 mph 1018.9mb 57f 64f
9:00 13 17 mph 1018.9mb 57f 64f
8:54 13 16 mph 1019mb 57f 64f
8:48 14 16 mph 1019.1mb 57f 64f
8:42 14 18 mph 1019.1mb 57f 64f
8:36 15 16 mph 1019.2mb 57f 64f
8:30 14 16 mph 1019.2mb 57f 64f
8:24 14 20 mph 1019.3mb 57f 64f
8:18 14 17 mph 1019.3mb 57f 64f
8:12 14 17 mph 1019.2mb 57f 64f
8:06 14 17 mph 1019.2mb 57f 64f
8:00 14 18 mph 1019.1mb 57f 64f
7:54 14 17 mph 1019.2mb 57f 64f
7:48 14 16 mph 1019.2mb 57f 64f
7:42 13 16 mph 1019.2mb 57f 64f
7:36 15 21 mph 1019.2mb 57f 64f
7:30 16 21 mph 1019.2mb 57f 64f
7:24 15 17 mph 1019.2mb 57f 64f
7:18 13 16 mph 1019.1mb 57f 64f
7:12 11 14 mph 1019.2mb 57f 64f
7:06 11 15 mph 1019.3mb 57f 63f
7:00 10 14 mph 1019.3mb 57f 63f
6:54 13 14 mph 1019.3mb 58f 62f
6:48 13 14 mph 1019.3mb 58f 62f
6:42 11 15 mph 1019.3mb 58f 62f
6:36 13 16 mph 1019.4mb 58f 62f
6:30 14 17 mph 1019.3mb 58f 62f
6:24 15 18 mph 1019.3mb 58f 62f
6:18 15 18 mph 1019.4mb 58f 62f
6:12 15 20 mph 1019.5mb 58f 62f
6:06 16 20 mph 1019.5mb 58f 62f
6:00 17 22 mph 1019.5mb 58f 62f
5:54 18 23 mph 1019.5mb 58f 62f
5:48 18 22 mph 1019.7mb 58f 62f
5:42 18 22 mph 1019.6mb 58f 62f
5:36 18 23 mph 1019.6mb 58f 62f
5:30 18 22 mph 1019.5mb 58f 62f
5:24 17 23 mph 1019.7mb 58f 62f
5:18 18 21 mph 1019.6mb 58f 61f
5:12 15 21 mph 1019.7mb 58f 61f
5:06 16 21 mph 1019.8mb 58f 61f
5:00 17 22 mph 1019.9mb 58f 61f
4:54 18 21 mph 1019.9mb 58f 62f
4:48 16 23 mph 1020mb 58f 62f
4:42 15 21 mph 1020.1mb 58f 61f
4:36 16 20 mph 1020.2mb 58f 61f
4:30 16 20 mph 1020.2mb 58f 61f
4:24 16 22 mph 1020.4mb 58f 61f
4:18 17 22 mph 1020.5mb 58f 61f
4:12 16 20 mph 1020.5mb 58f 61f
4:06 16 18 mph 1020.5mb 57f 61f
4:00 16 22 mph 1020.6mb 57f 61f
3:54 18 22 mph 1020.6mb 57f 61f
3:48 18 23 mph 1020.7mb 57f 61f
3:42 21 24 mph 1020.7mb 57f 61f
3:36 20 24 mph 1020.8mb 57f 61f
3:30 20 23 mph 1020.8mb 57f 61f
3:24 21 24 mph 1021mb 57f 61f
3:18 20 25 mph 1021mb 57f 61f
3:12 23 28 mph 1021.1mb 57f 61f
3:06 21 26 mph 1021.2mb 57f 61f
3:00 22 26 mph 1021.4mb 57f 60f
2:54 21 25 mph 1021.4mb 57f 60f
2:48 22 29 mph 1021.5mb 57f 60f
2:42 20 24 mph 1021.4mb 57f 60f
2:36 21 23 mph 1021.6mb 57f 60f
2:30 21 25 mph 1021.5mb 57f 60f
2:24 22 26 mph 1021.6mb 57f 60f
2:18 20 24 mph 1021.7mb 57f 60f
2:12 21 24 mph 1021.7mb 57f 60f
2:06 21 26 mph 1021.8mb 57f 60f
2:00 21 24 mph 1021.9mb 57f 60f
1:54 21 26 mph 1022.1mb 57f 60f
1:48 22 28 mph 1022.2mb 57f 60f
1:42 23 28 mph 1022.2mb 57f 60f
1:36 23 28 mph 1022.3mb 57f 60f
1:30 24 29 mph 1022.4mb 57f 60f
1:24 24 29 mph 1022.5mb 57f 60f
1:18 23 26 mph 1022.6mb 57f 60f
1:12 22 28 mph 1022.7mb 57f 60f
1:06 22 26 mph 1022.8mb 57f 60f
1:00 23 26 mph 1023mb 57f 60f
12:54 22 28 mph 1023.1mb 57f 60f
12:48 21 28 mph 1023.1mb 57f 60f
12:42 23 26 mph 1023.2mb 57f 60f
12:36 21 25 mph 1023.2mb 57f 60f
12:30 20 23 mph 1023.5mb 57f 60f
12:24 20 25 mph 1023.6mb 57f 60f
12:18 22 25 mph 1023.7mb 57f 60f
12:12 20 23 mph 1023.7mb 57f 60f
12:06 21 24 mph 1023.8mb 57f 60f
12:00 21 23 mph 1024mb 57f 60f
11:54 17 22 mph 1024.1mb 57f 59f
11:48 17 23 mph 1024.3mb 57f 59f
11:42 17 24 mph 1024.3mb 57f 59f
11:36 18 22 mph 1024.3mb 57f 59f
11:30 16 20 mph 1024.3mb 57f 58f
11:24 14 18 mph 1024.4mb 57f 58f
11:18 8 13 mph 1024.4mb 57f 57f
11:12 5 6 mph 1024.5mb 57f 56f
11:06 5 7 mph 1024.5mb 57f 55f
11:00 3 7 mph 1024.6mb 57f 54f
10:54 6 9 mph 1024.7mb 57f 54f
10:48 5 8 mph 1024.9mb 57f 54f
10:42 5 9 mph 1024.9mb 57f 54f
10:36 6 9 mph 1024.9mb 57f 55f
10:30 7 16 mph 1024.9mb 57f 57f
10:24 13 16 mph 1025.1mb 57f 57f
10:18 14 18 mph 1025.1mb 57f 57f
10:12 14 17 mph 1025.3mb 57f 57f
10:06 9 16 mph 1025.3mb 57f 57f
10:00 18 22 mph 1025.4mb 57f 57f
9:54 17 22 mph 1025.5mb 57f 57f
9:48 18 23 mph 1025.4mb 57f 57f
9:42 17 23 mph 1025.4mb 57f 57f
9:36 21 24 mph 1025.5mb 57f 57f
9:30 21 23 mph 1025.6mb 57f 57f
9:24 16 24 mph 1025.6mb 57f 57f
9:18 21 26 mph 1025.7mb 57f 57f
9:12 21 25 mph 1025.7mb 57f 56f
9:06 20 24 mph 1025.7mb 57f 57f
9:00 17 21 mph 1025.7mb 57f 56f
8:54 17 21 mph 1025.8mb 57f 56f
8:48 16 20 mph 1025.8mb 57f 55f
8:42 11 16 mph 1025.7mb 57f 55f
8:36 7 9 mph 1025.8mb 57f 53f
8:30 8 10 mph 1026mb 57f 51f
8:24 6 8 mph 1026.1mb 57f 50f
8:18 6 7 mph 1026.3mb 57f 49f
8:12 3 6 mph 1026.4mb 57f 48f
8:06 5 7 mph 1026.5mb 57f 48f
8:00 2
mph
1026.6mb 57f 48f
7:54 2 5 mph 1026.7mb 57f 46f
7:48 3 6 mph 1026.9mb 57f 46f
7:42 3 6 mph 1027.1mb 57f 46f
7:36 3 6 mph 1027.2mb 57f 46f
7:30 3 7 mph 1027.3mb 57f 46f
7:24 5 8 mph 1027.3mb 57f 46f
7:18 6 9 mph 1027.3mb 57f 46f
7:12 6 10 mph 1027.3mb 57f 46f
7:06 6 9 mph 1027.3mb 57f 46f
7:00 6 9 mph 1027.3mb 57f 45f
6:54 7 9 mph 1027.2mb 57f 44f
6:48 5 7 mph 1027.1mb 57f 44f
6:42 3 6 mph 1027mb 57f 44f
6:36 5 6 mph 1026.9mb 56f 44f
6:30 3 6 mph 1026.8mb 56f 44f
6:24 3 6 mph 1026.8mb 56f 43f
6:18 3 6 mph 1026.9mb 56f 43f
6:12 3 5 mph 1026.9mb 56f 42f
6:06 2 3 mph 1027mb 56f 41f
6:00 2 3 mph 1027.1mb 56f 41f
5:54  -  2 mph 1027.2mb 56f 42f
5:48 1 2 mph 1027.1mb 56f 42f
5:42  -  2 mph 1027.3mb 56f 42f
5:36  -  2 mph 1027.4mb 56f 42f
5:30 2 3 mph 1027.4mb 56f 42f
5:24 2 5 mph 1027.5mb 56f 42f
5:18 2
mph
1027.6mb 56f 42f
5:12 1 3 mph 1027.7mb 56f 42f
5:06 1 3 mph 1027.8mb 56f 41f
5:00 2 3 mph 1027.8mb 56f 41f
4:54  -  5 mph 1027.8mb 56f 41f
4:48 3 7 mph 1028.1mb 56f 41f
4:42 3 6 mph 1028.1mb 56f 41f
4:36 2 5 mph 1028.1mb 56f 41f
4:30 2 5 mph 1028.1mb 56f 41f
4:24 2 5 mph 1028mb 56f 41f
4:18 2 7 mph 1027.9mb 57f 41f
4:12 3 6 mph 1027.9mb 57f 41f
4:06 2 3 mph 1027.8mb 57f 41f
4:00 1 6 mph 1027.8mb 57f 42f
3:54 3 7 mph 1027.9mb 57f 43f
3:48 3 7 mph 1027.8mb 57f 43f
3:42 3 7 mph 1027.8mb 57f 43f
3:36 6 8 mph 1027.7mb 57f 43f
3:30 5 8 mph 1027.7mb 57f 43f
3:24 6 8 mph 1027.8mb 57f 43f
3:18 6 9 mph 1027.8mb 57f 43f
3:12 6 9 mph 1027.8mb 57f 43f
3:06 6 8 mph 1027.9mb 57f 43f
3:00 5 8 mph 1027.8mb 57f 42f
2:54 5 7 mph 1027.9mb 57f 42f
2:48 5 8 mph 1028mb 57f 42f
2:42 2 5 mph 1028.1mb 57f 42f
2:36 2 6 mph 1028.2mb 57f 41f
2:30 2 5 mph 1028.3mb 57f 41f
2:24 3 5 mph 1028.4mb 57f 41f
2:18 2 3 mph 1028.5mb 57f 42f
2:12 2 3 mph 1028.4mb 57f 42f
2:06 3 5 mph 1028.5mb 57f 42f
2:00 3 5 mph 1028.5mb 58f 42f
1:54 2 6 mph 1028.6mb 58f 42f
1:48 5 7 mph 1028.5mb - -
1:42 6 7 mph 1028.4mb - -
1:36 3 6 mph 1028.4mb 57f 42f
1:30 2 5 mph 1028.4mb 57f 42f
1:24 3 5 mph 1028.4mb 58f 43f
1:18  -  mph - 57f -
1:12  -  mph - 57f -
1:06  -  mph - 58f -
1:00  -  mph 1028.6mb - -
12:54  -  mph 1028.6mb - -
12:48  -  mph 1028.5mb - 43f
12:42  -  mph 1028.5mb - 43f
12:36  -  mph 1028.4mb - 44f
12:30 5 6 mph 1028.4mb 58f -
12:24 3 6 mph 1028.4mb 58f 43f
12:18 3
mph
1028.4mb 58f 42f
12:12  -  mph 1028.5mb - -
12:06  -  mph 1028.5mb - -
12:00  -  mph 1028.4mb - -
ven. 09/19 11:54  -  mph 1028.6mb - -
11:48 1 3 mph 1028.5mb 57f 44f
11:42 2 3 mph 1028.6mb 57f 44f
11:36 2 5 mph 1028.7mb 57f 44f
11:30 3 6 mph 1028.8mb 57f 44f
11:24 3 6 mph 1028.9mb 57f 44f
11:18 5 6 mph 1029.1mb 57f 44f
11:12 3 6 mph 1029.2mb 57f 44f
11:06 2 5 mph 1029.2mb 57f 43f
11:00 1 2 mph 1029.3mb 57f 43f
10:54 3 5 mph 1029.2mb 57f 43f
10:48 3 5 mph 1029.2mb 58f 43f
10:42 3
mph
1029.1mb 58f 42f
10:36 2 3 mph 1029.2mb 58f 42f
10:30 3
mph
1029.3mb 58f 42f
10:24 3
mph
1029.2mb 58f 43f
10:18 2 3 mph 1029.2mb 58f 43f
10:12 2 3 mph 1029.3mb 58f 44f
10:06 2 3 mph 1029.2mb 58f 44f
10:00 2 3 mph 1029.3mb 58f 45f
9:54 2 5 mph 1029.3mb 58f 44f
9:48 3 5 mph 1029.4mb 58f 44f
9:42 2 3 mph 1029.4mb 58f 46f
9:36 2 3 mph 1029.3mb 58f 46f
9:30 2 3 mph 1029.3mb 58f 46f
9:24 2
mph
1029.4mb 58f 45f
9:18 2 3 mph 1029.5mb 58f 46f
9:12 3 5 mph 1029.6mb 58f 46f
9:06 5 6 mph 1029.5mb 58f 46f
9:00 3 5 mph 1029.5mb 58f 46f
8:54 3 5 mph 1029.5mb 58f 47f
8:48 3 7 mph 1029.5mb 58f 47f
8:42 5 9 mph 1029.4mb 58f 47f
8:36 5 7 mph 1029.4mb 58f 48f
8:30 5 7 mph 1029.4mb 58f 48f
8:24 6 7 mph 1029.3mb 58f 48f
8:18 5 7 mph 1029.4mb 58f 48f
8:12 6 7 mph 1029.3mb 58f 49f
8:06 6 9 mph 1029.3mb 58f 49f
8:00 3 6 mph 1029.2mb 58f 49f
7:54 3 8 mph 1029.3mb 58f 49f
7:48 6 7 mph 1029.3mb 58f 50f
7:42 5 6 mph 1029.2mb 58f 49f
7:36 6 8 mph 1029.2mb 58f 49f
7:30 5 7 mph 1029.1mb 58f 49f
7:24 5 6 mph 1029.1mb 58f 49f
7:18 5 7 mph 1029mb 58f 49f
7:12 5 7 mph 1029mb 58f 50f
7:06 5 10 mph 1029mb 58f 50f
7:00 9 14 mph 1029mb 58f 52f
6:54 10 13 mph 1029mb 58f 52f
6:48 9 14 mph 1028.9mb 58f 52f
6:42 10 14 mph 1028.9mb 58f 52f
6:36 11 14 mph 1029mb 58f 52f
6:30 9 13 mph 1028.8mb 58f 52f
6:24 11 14 mph 1028.9mb 58f 52f
6:18 10 14 mph 1028.8mb 58f 52f
6:12 10 14 mph 1028.7mb 58f 52f
6:06 9 13 mph 1028.7mb 58f 52f
6:00 11 14 mph 1028.8mb 58f 52f
5:54 10 14 mph 1028.7mb 58f 52f
5:48 13 15 mph 1028.8mb 58f 52f
5:42 10 14 mph 1028.8mb 58f 52f
5:36 10 11 mph 1028.7mb 59f 53f
5:30 9 14 mph 1028.6mb 59f 53f
5:24 10 11 mph 1028.6mb 59f 53f
5:18 11 13 mph 1028.7mb 59f 53f
5:12 9 13 mph 1028.6mb 59f 53f
5:06 10 13 mph 1028.7mb 59f 53f
5:00 10 14 mph 1028.7mb 59f 53f
4:54 8 13 mph 1028.7mb 59f 53f
4:48 10 14 mph 1028.8mb 59f 53f
4:42 8 10 mph 1028.8mb 59f 53f
4:36 9 11 mph 1028.8mb 59f 53f
4:30 8 13 mph 1028.8mb 59f 53f
4:24 9 11 mph 1028.7mb 59f 53f
4:18 8 10 mph 1028.7mb 59f 53f
4:12 7 10 mph 1028.6mb 59f 53f
4:06 7 10 mph 1028.6mb 59f 53f
4:00 9 10 mph 1028.5mb 59f 53f
3:54 9 11 mph 1028.5mb 58f 53f
3:48 8 11 mph 1028.6mb 58f 53f
3:42 9 11 mph 1028.6mb 58f 53f
3:36 9 10 mph 1028.6mb 58f 53f
3:30 8 10 mph 1028.7mb 58f 53f
3:24 7 10 mph 1028.9mb 58f 53f
3:18 8 10 mph 1028.9mb 58f 53f
3:12 6 9 mph 1029mb 58f 53f
3:06 7 9 mph 1029.1mb 58f 53f
3:00 8 13 mph 1029mb 58f 53f
2:54 7 11 mph 1028.8mb 58f 53f
2:48 8 11 mph 1028.9mb 58f 52f
2:42 8 10 mph 1029mb 58f 52f
2:36 6 10 mph 1029.1mb 58f 52f
2:30 7 10 mph 1029.1mb 58f 52f
2:24 8 10 mph 1029.1mb 58f 52f
2:18 8 11 mph 1029.1mb 58f 53f
2:12 8 10 mph 1029.1mb 58f 52f
2:06 8 11 mph 1029.2mb 58f 52f
2:00 7 10 mph 1029.2mb 58f 52f
1:54 8 11 mph 1029.2mb 58f 52f
1:48 9 13 mph 1029.2mb 58f 52f
1:42 8 10 mph 1029.2mb 58f 52f
1:36 8 10 mph 1029.3mb 58f 52f
1:30 8 10 mph 1029.2mb 58f 51f
1:24 8 11 mph 1029.2mb 58f 52f
1:18 8 10 mph 1029mb 58f 52f
1:12 7 10 mph 1029.1mb 58f 51f
1:06 8 10 mph 1029mb 58f 51f
1:00 8 11 mph 1029mb 58f 51f
12:54 9 13 mph 1028.8mb 58f 51f
12:48 8 10 mph 1028.8mb 58f 51f
12:42 7 13 mph 1028.8mb 58f 52f
12:36 10 13 mph 1028.8mb 58f 52f
12:30 9 11 mph 1028.7mb 58f 52f
12:24 8 11 mph 1028.7mb 58f 52f
12:18 6 9 mph 1028.6mb 58f 53f
12:12 7 10 mph 1028.6mb 58f 52f
12:06 8 10 mph 1028.5mb 58f 51f
12:00 7 9 mph 1028.4mb 58f 51f